Terminal Aerodrome Forecast
Issued by NWS Bismarck, ND

Home | Current Version | Previous Version | Text Only | Print | Product List | Glossary Off
Versions: 1 2 3 4 5 6 7 8 9 10 11 12 13 14 15 16 17 18 19 20 21 22 23 24

945
FTUS43 KBIS 131631 AAC
TAFISN
TAF AMD
KISN 131631Z 1317/1412 14013KT P6SM OVC035
      TEMPO 1317/1318 5SM -SN BKN018 OVC035
     FM131800 16011KT P6SM VCSH OVC010
     FM132100 16010KT 6SM -SN OVC008
     FM140100 20007KT P6SM -SN OVC015
     FM140400 28011KT P6SM VCSH OVC010
     FM140600 29013KT P6SM OVC008
     FM140900 28011KT P6SM BKN015=

USA.gov is the U.S. government's official web portal to all federal, state and local government web resources and services.